Shungnak AP, Shungnak, AK, AK

2:36 PM AKST on November 16, 2019 (GMT -0900)
Shungnak AP, Shungnak, AK

Weather History for PAGH - September, 2019

Change the Weather History Date:

Sunday, September 29, 2019

  Actual Average (WUND) Record (WUND)
Temperature  
Mean Temperature 40 °F -  
Max Temperature 45 °F - - (-1)
Min Temperature 37 °F - - (-1)
Degree Days  
Heating Degree Days 24    
Moisture  
Dew Point 37 °F    
Average Humidity 87    
Maximum Humidity 93    
Minimum Humidity 58    
Precipitation  
Precipitation 0.00 in - - ()
Sea Level Pressure  
Sea Level Pressure 29.61 in    
Wind  
Wind Speed 20 mph (ESE)    
Max Wind Speed 28 mph    
Max Gust Speed 36 mph    
Visibility 9 miles    
Events Rain    
Averages and records for this station are not official NWS values.
T = Trace of Precipitation, MM = Missing Value Source: NWS Daily Summary

Daily Weather History Graph

Daily Weather History Graph

Search for Another Location

Airport or City:

Astronomy

Sep. 29, 2019 Rise Set
Actual Time 8:33 AM AKDT 8:02 PM AKDT
Civil Twilight 7:40 AM AKDT 8:54 PM AKDT
Nautical Twilight 6:37 AM AKDT 9:58 PM AKDT
Astronomical Twilight 5:24 AM AKDT 11:09 PM AKDT
Moon 9:48 AM AKDT (9/29) 8:44 PM AKDT (9/29)
Length of Visible Light 13h 14m
Length of Day
11h 28m
New Moon, 2% of the Moon is Illuminated
Sep 29
New Moon
Oct 5
First Quarter
Oct 13
Full
Oct 21
Last Quarter
Oct 27
New

Hourly Weather History & Observations

Time (AKDT) Temp. Windchill Dew Point Humidity Pressure Visibility Wind Dir Wind Speed Gust Speed Precip Events Conditions
12:56 AM 42.1 °F 33.6 °F 30.9 °F 65% 29.84 in 10.0 mi ESE 18.4 mph 24.2 mph N/A   Overcast
1:56 AM 42.1 °F 33.9 °F 30.9 °F 65% 29.82 in 10.0 mi ESE 17.3 mph - N/A   Overcast
2:56 AM 43.0 °F 34.8 °F 30.9 °F 62% 29.78 in 10.0 mi ESE 18.4 mph 24.2 mph N/A   Overcast
3:56 AM 44.1 °F 36.2 °F 30.0 °F 58% 29.75 in 10.0 mi ESE 18.4 mph 32.2 mph N/A   Overcast
4:56 AM 39.9 °F 30.0 °F 34.0 °F 79% 29.73 in 10.0 mi ESE 21.9 mph 31.1 mph N/A Rain Light Rain
5:56 AM 37.9 °F 27.3 °F 35.1 °F 89% 29.70 in 10.0 mi ESE 21.9 mph 31.1 mph N/A Rain Light Rain
6:56 AM 37.9 °F 27.6 °F 35.1 °F 89% 29.68 in 10.0 mi East 20.7 mph 28.8 mph N/A Rain Light Rain
7:15 AM 37.4 °F 26.6 °F 35.6 °F 93% 29.66 in 10.0 mi East 21.9 mph 32.2 mph N/A Rain Light Rain
7:56 AM 37.0 °F 26.7 °F 35.1 °F 93% 29.65 in 10.0 mi East 19.6 mph 32.2 mph N/A Rain Light Rain
8:56 AM 37.9 °F 27.3 °F 35.1 °F 89% 29.62 in 10.0 mi ESE 21.9 mph 29.9 mph N/A   Overcast
9:56 AM 39.0 °F 28.8 °F 35.1 °F 86% 29.61 in 10.0 mi ESE 21.9 mph 29.9 mph N/A   Overcast
10:56 AM 39.0 °F 28.5 °F 35.1 °F 86% 29.60 in 10.0 mi ESE 23.0 mph 32.2 mph N/A Rain Light Rain
11:56 AM 39.0 °F 27.6 °F 36.0 °F 89% 29.59 in 7.0 mi ESE 27.6 mph 32.2 mph N/A Rain Light Rain
12:56 PM 39.0 °F 28.5 °F 37.0 °F 93% 29.58 in 9.0 mi ESE 23.0 mph 35.7 mph N/A   Overcast
1:45 PM 39.2 °F 28.0 °F 37.4 °F 93% 29.55 in 8.0 mi ESE 26.5 mph 35.7 mph N/A   Overcast
1:56 PM 39.9 °F 29.2 °F 37.0 °F 89% 29.57 in 9.0 mi ESE 25.3 mph 34.5 mph N/A   Overcast
2:56 PM 39.9 °F 29.0 °F 37.0 °F 89% 29.56 in 9.0 mi ESE 26.5 mph 34.5 mph N/A Rain Light Rain
3:49 PM 39.2 °F 28.5 °F 37.4 °F 93% 29.52 in 9.0 mi ESE 24.2 mph 34.5 mph N/A Rain Light Rain
3:56 PM 39.9 °F 29.5 °F 37.9 °F 93% 29.55 in 10.0 mi ESE 24.2 mph 35.7 mph N/A Rain Light Rain
4:56 PM 41.0 °F 31.4 °F 39.0 °F 93% 29.54 in 7.0 mi ESE 21.9 mph 32.2 mph N/A Rain Light Rain
5:56 PM 41.0 °F 31.4 °F 39.0 °F 93% 29.54 in 7.0 mi ESE 21.9 mph 28.8 mph N/A Rain Light Rain
6:56 PM 41.0 °F 32.8 °F 39.0 °F 93% 29.54 in 10.0 mi ESE 16.1 mph 26.5 mph N/A   Overcast
7:56 PM 41.0 °F 31.9 °F 39.0 °F 93% 29.53 in 10.0 mi ESE 19.6 mph 28.8 mph N/A   Overcast
8:56 PM 42.1 °F 33.9 °F 39.9 °F 92% 29.53 in 6.0 mi ESE 17.3 mph 29.9 mph N/A Rain Light Rain
9:14 PM 42.8 °F 34.3 °F 39.2 °F 87% 29.51 in 10.0 mi ESE 19.6 mph 26.5 mph N/A Rain Light Rain
9:56 PM 42.1 °F 34.2 °F 39.9 °F 92% 29.53 in 10.0 mi ESE 16.1 mph 26.5 mph N/A   Overcast
10:48 PM 42.8 °F 35.1 °F 39.2 °F 87% 29.52 in 10.0 mi ESE 16.1 mph 24.2 mph N/A   Overcast
10:56 PM 42.1 °F 33.6 °F 39.9 °F 92% 29.54 in 10.0 mi ESE 18.4 mph 23.0 mph N/A   Overcast
11:24 PM 42.8 °F 36.2 °F 41.0 °F 93% 29.53 in 10.0 mi ESE 12.7 mph - N/A Rain Light Rain
11:56 PM 43.0 °F 38.8 °F 41.0 °F 93% 29.57 in 10.0 mi ESE 6.9 mph - N/A Rain Light Rain